Regional Weather Roundup
Issued by NWS

Home | Current Version | Previous Version | Text Only | Print | Product List | Glossary On
Versions: 1 2 3 4 5 6 7 8 9 10 11 12 13 14 15 16 17 18 19 20 21 22 23 24 25 26 27 28 29 30 31 32 33 34 35 36 37 38 39 40 41 42 43 44 45 46 47 48 49 50
000
ASUS43 KDTX 040210
RWRMI
MICHIGAN HOURLY REGIONAL WEATHER ROUNDUP
NATIONAL WEATHER SERVICE DETROIT/PONTIAC MI
ISSUED BY NATIONAL WEATHER SERVICE GRAND RAPIDS MI
1000 PM EDT THU SEP 03 2015

NOTE: "FAIR" INDICATES FEW OR NO CLOUDS BELOW 12,000 FEET WITH NO
SIGNIFICANT WEATHER AND/OR OBSTRUCTION TO VISIBILITY.

MIZ047>049-052>055-059>063-066>070-074>076-081>083-040300-
SOUTHEAST LOWER MICHIGAN

CITY           SKY/WX    TMP DP  RH WIND       PRES   REMARKS
ADRIAN         TSTM      72  70  93 MISG      29.96R FOG
ALMA           CLOUDY    67  67  99 E5        29.91S FOG
ANN ARBOR      CLOUDY    68  66  93 NE7       29.93R
BAD AXE        CLOUDY    68  67  97 CALM      29.95S
DETROIT CITY   TSTM      68  66  93 N3        29.97R FOG
DETROIT        CLOUDY    68  66  94 NE6       29.95R
FLINT          CLOUDY    70  65  84 SE9       29.92S
GROSSE ILE     LGT RAIN  70  66  88 SE10      29.92F
HILLSDALE      CLOUDY    72  72 100 E3        29.93F
HOWELL         CLOUDY    67  66  98 E5        29.93R

CITY           SKY/WX    TMP DP  RH WIND       PRES   REMARKS
JACKSON        CLOUDY    72  70  93 SE3       29.92R
LANSING        CLOUDY    70  68  93 SE5       29.91R
MASON          LGT RAIN  69  66  92 CALM      29.92R
MONROE         LGT RAIN  71  69  94 SE5       29.92S
MT. CLEMENS    LGT RAIN  70  68  94 E7        29.95R FOG
PONTIAC        LGT RAIN  68  67  96 SE9       29.94S FOG
PORT HOPE        N/A     69  66  90 CALM      29.93R
PORT HURON     RAIN      66  66 100 SE7       29.95R
TRI CITIES     CLOUDY    68  65  90 NE7       29.93R
YPSILANTI      CLOUDY    71  66  84 E9        29.94R
$$
MIZ043>046-050>051-056>058-064>065-071>073-077>080-040300-
SOUTHWEST LOWER MICHIGAN

CITY           SKY/WX    TMP DP  RH WIND       PRES   REMARKS
BATTLE CREEK   MOCLDY    77  70  79 NW6       29.92R
BENTON HARBOR  CLEAR     72  66  81 N6        29.91R
BIG RAPIDS     CLOUDY    69  67  93 N3        29.91R
COLDWATER      MOCLDY    74  73  96 NE3       29.91R
HOLLAND        CLOUDY    70  66  87 NW7       29.93R
GRAND RAPIDS   MOCLDY    73  67  81 NW9       29.91R
KALAMAZOO      MOCLDY    77  70  79 N7        29.92R
MARSHALL       CLOUDY    73  71  93 CALM      29.91R
MOUNT PLEASANT CLOUDY    69  67  93 E6        29.91R
MUSKEGON       MOCLDY    70  65  84 NW5       29.91R
STURGIS        MOCLDY    77  72  83 CALM      29.90R
$$
MIZ016>042-040300-
NORTHERN LOWER MICHIGAN

CITY           SKY/WX    TMP DP  RH WIND       PRES   REMARKS
ALPENA         CLOUDY    68  66  93 N5        29.97R
BEAVER ISLAND  PTCLDY    67  65  93 E6        29.99R
BELLAIRE       CLOUDY    68  65  91 N3        29.96R FOG
CADILLAC       RAIN      67  66  97 N5        29.93R
CHARLEVOIX     CLOUDY    70  67  91 NE7       29.99R FOG
GAYLORD        LGT RAIN  66  66 100 NE7       29.99R
HOUGHTON LAKE  LGT RAIN  66  65  96 E9        29.96R
MANISTEE       CLOUDY    68  64  88 NE6       29.93R
OSCODA         CLOUDY    68  67  98 CALM      29.94S
PELLSTON       MOCLDY    67  65  93 NE5       29.98R
TRAVERSE CITY  LGT RAIN  70  66  87 NE8       29.93R FOG
LUDINGTON      CLOUDY    71  69  93 N3        29.93R FOG
$$
MIZ007>008-015-040300-
EASTERN UPPER MICHIGAN

CITY           SKY/WX    TMP DP  RH WIND       PRES   REMARKS
KINROSS        MOCLDY    70  64  83 CALM      30.00R
MACKINAC ISLAN MOCLDY    65  64  97 NE7       29.99R FOG
NEWBERRY       PTCLDY    68  63  84 NE3       30.00R
S. S. MARIE    PTCLDY    68  62  81 CALM      30.00R
$$
MIZ004>006-011>014-085-040300-
CENTRAL UPPER MICHIGAN

CITY           SKY/WX    TMP DP  RH WIND       PRES   REMARKS
MANISTIQUE     CLEAR     65  61  85 N5        29.98R
ESCANABA       CLEAR     68  61  77 N5        29.97R
MENOMINEE      CLEAR     68  61  77 NE6       29.96R
$$
MIZ001>003-009>011-084-040300-
WESTERN UPPER MICHIGAN

CITY           SKY/WX    TMP DP  RH WIND       PRES   REMARKS
IRON MOUNTAIN  CLEAR     69  61  75 E7        29.99R
HOUGHTON       CLEAR     62  56  80 E7        30.01R
COPPER HARBOR    N/A     63  60  90 CALM      30.01R
IRONWOOD       CLEAR     64  63  94 E6        29.96R
$$

ABBREVIATIONS USED IN REMARKS
   TC - TEMPERATURE IN CELSIUS
  WCI - WIND CHILL INDEX
   HX - HEAT INDEX
  VSB - VISIBILITY



USA.gov is the U.S. government's official web portal to all federal, state and local government web resources and services.